#timestamp,LO_Frequency,Hit,StdDev 
1506531615.5,286047000.3,N
1506531635.3,286046997.2,N
1506531655.2,286047001.2,N
1506531675.9,286047000.8,N
1506531695.7,286047001.3,N
1506531715.9,286046998.4,N
1506531735.7,286046999.2,N
1506531755.3,286046999.7,N
1506531775.2,286047001.5,N
1506531795.9,286047001.3,N
1506531815.7,286047003.5,N
1506531835.4,286047002.7,N
1506531855.3,286047000.1,N
1506531875.1,286046998.4,N
1506531895.8,286047002.3,N
1506531915.1,286047001.2,N
1506531935.8,286047003.9,N
1506531955.1,286047003.7,N
1506531975.8,286047001.9,N
1506531995.2,286047002.2,N
1506532015.0,286047000.4,N
1506532016.0,286047000.4,N
1506532035.8,286047001.8,N
1506532055.6,286047004.1,N
1506532075.6,286047001.9,N
1506532095.4,286047001.8,N
1506532115.2,286046999.8,N
1506532135.1,286047001.2,N
1506532136.0,286047001.2,N
1506532155.8,286046997.6,N
1506532175.6,286046999.0,N
1506532195.2,286047004.3,N
1506532215.0,286047003.8,N
1506532216.0,286047003.8,N
1506532235.8,286047005.0,N
1506532255.6,286047006.3,Y
1506532275.1,286047004.5,P
1506532295.8,286047003.4,N
1506532315.1,286047000.3,N
1506532335.8,286047003.9,N
1506532355.3,286047001.7,N
1506532375.2,286047001.9,N
1506532395.9,286047007.3,Y
1506532415.7,286047001.5,P
1506532435.2,286047001.5,P
1506532455.1,286046998.1,P
1506532456.0,286046998.1,N
1506532475.8,286047002.5,N
1506532495.6,286047004.9,N
1506532515.5,286047009.0,Y
1506532535.3,286047002.9,P
1506532555.1,286047001.4,N
1506532575.9,286047001.5,N
1506532595.5,286047001.6,N
1506532615.3,286047003.1,Y
1506532635.1,286047000.6,P
1506532655.9,286046999.8,N
1506532675.1,286047001.7,N
1506532695.9,286047003.8,Y
1506532715.3,286047003.9,P
1506532735.2,286047001.6,N
1506532755.9,286047002.6,N
1506532775.7,286046998.1,N
1506532795.5,286046999.3,N
1506532815.3,286047001.2,N
1506532835.2,286046999.8,N
1506532855.9,286047001.1,N
1506532875.8,286046999.3,N
1506532895.6,286046999.6,N
1506532915.5,286046997.1,N
1506532935.3,286046997.5,N
1506532955.1,286046997.0,N
1506532975.8,286046999.3,N
1506532995.1,286046997.0,N
1506533015.9,286047001.1,N
1506533035.2,286046998.9,N
1506533055.1,286047000.6,N
1506533056.0,286047000.6,N
1506533075.8,286047000.7,N
1506533095.6,286046999.8,N
1506533115.1,286047002.8,N
1506533135.9,286046999.8,N
1506533155.2,286047001.3,N
1506533175.1,286047001.8,N
1506533176.0,286047001.8,N
1506533195.8,286047003.9,N
1506533215.6,286046999.9,N
1506533235.5,286047000.8,N
1506533255.3,286046997.0,N
1506533275.1,286046998.0,N
1506533295.9,286046998.3,N
1506533315.5,286046998.1,N
1506533335.3,286047000.0,N
1506533355.1,286047002.8,N
1506533375.9,286047002.1,N
1506533395.7,286047005.5,N
1506533415.5,286047003.0,N
1506533435.3,286047005.9,N
1506533455.2,286047006.0,N
1506533475.0,286047007.5,N
1506533475.9,286047007.5,N
1506533495.7,286047007.4,N
1506533515.3,286047005.0,N
1506533535.2,286047013.5,Y
1506533555.0,286047013.5,P
1506533555.9,286047013.5,N
1506533575.8,286047012.6,N
1506533595.8,286047010.6,N
1506533615.6,286047008.8,N
1506533635.4,286047007.9,N
1506533655.2,286047007.7,N
1506533675.1,286047009.4,N
1506533676.0,286047009.4,N
1506533695.8,286047011.9,Y
1506533715.7,286047000.6,P
1506533735.5,286046996.5,N
1506533755.4,286046997.3,N
1506533775.2,286046998.1,N
1506533795.0,286047002.7,N
1506533795.9,286047002.7,N
1506533815.8,286047000.3,N
1506533835.6,286047000.4,N
1506533855.9,286046998.2,N
1506533875.7,286046998.3,N
1506533895.5,286047001.0,N
1506533915.4,286047007.1,N
1506533935.2,286047008.9,N
1506533955.0,286047006.8,N
1506533955.9,286047006.8,N
1506533975.8,286047009.0,N
1506533995.6,286047004.9,N
1506534015.4,286047008.6,N
1506534035.2,286047006.8,N
1506534055.1,286047008.7,N
1506534056.0,286047008.7,N
1506534075.8,286047006.7,N
1506534095.4,286047005.8,N
1506534115.2,286047003.1,N
1506534135.1,286047003.1,N
1506534136.0,286047003.1,N
1506534155.8,286047001.3,N
1506534175.6,286047002.3,N
1506534195.5,286047001.3,N
1506534215.3,286047001.9,N
1506534235.1,286047000.1,N
1506534255.9,286046998.2,N
1506534275.7,286047001.1,N
1506534295.5,286047000.9,N
1506534315.4,286046993.4,N
1506534335.2,286046995.9,N
1506534355.0,286046999.3,N
1506534355.9,286046999.3,N
1506534375.8,286046999.0,N
1506534395.6,286046998.9,N
1506534415.8,286046996.9,N
1506534435.6,286046997.3,N
1506534455.4,286046998.3,N
1506534475.3,286047001.4,N
1506534495.1,286047003.9,N
1506534496.0,286047003.9,N
1506534515.8,286047003.0,N
1506534535.6,286047001.8,N
1506534555.5,286047003.6,N
1506534575.3,286047001.7,N
1506534595.1,286047003.6,N
1506534615.9,286047004.1,N
1506534635.7,286047002.6,N
1506534655.5,286046999.9,N
1506534675.4,286046999.5,N
1506534695.2,286047000.7,N
1506534715.0,286046998.4,N
1506534715.9,286046998.4,N
1506534735.8,286047001.5,N
1506534755.6,286047002.2,N
1506534775.4,286047000.3,N
1506534795.3,286047002.8,N
1506534815.1,286046998.8,N
1506534816.0,286046998.8,N
1506534835.8,286046999.4,N
1506534855.7,286046998.2,N
1506534875.5,286046998.8,N
1506534895.3,286046999.2,N
1506534915.1,286046999.1,N
1506534935.9,286046997.5,N
1506534955.7,286046995.3,N
1506534975.5,286046994.3,N
1506534995.4,286046992.7,N
1506535015.2,286046992.8,N
1506535035.0,286046994.0,N
1506535035.9,286046994.0,N
1506535055.8,286046994.6,N
1506535075.6,286046994.3,N
1506535095.4,286046991.8,N
1506535115.3,286046992.2,N
1506535135.1,286046994.9,N
1506535136.0,286046994.9,N
1506535155.8,286046993.3,N
1506535175.7,286046997.9,N
1506535195.5,286046996.2,N
